Weather History for KBGD - January, 2013

Change the Weather History Date:

Monday, January 7, 2013

  Actual Average Record
Temperature  
Mean Temperature 43 °F 38 °F  
Max Temperature 52 °F 50 °F 82 °F (2006)
Min Temperature 33 °F 26 °F -4 °F (1988)
Degree Days  
Heating Degree Days 22 27  
Month to date heating degree days 230 193  
Since 1 July heating degree days 1473 1730  
Cooling Degree Days 0 0  
Month to date cooling degree days 0 0  
Year to date cooling degree days 0 0  
Moisture  
Dew Point 22 °F    
Average Humidity 46    
Maximum Humidity 61    
Minimum Humidity 30    
Precipitation  
Precipitation 0.00 in 0.02 in 0.44 in (1992)
Month to date precipitation T 0.12  
Year to date precipitation T 0.12  
Snow  
Snow 0.00 in - 4.50 in (1973)
Month to date snowfall T  
Since 1 July snowfall 1.5  
Snow Depth T in    
Sea Level Pressure  
Sea Level Pressure 30.08 in    
Wind  
Wind Speed 11 mph (SSW)    
Max Wind Speed 20 mph    
Max Gust Speed 26 mph    
Visibility 10 miles    
Events      
T = Trace of Precipitation, MM = Missing Value Source: NWS Daily Summary

Daily Weather History Graph

Daily Weather History Graph

Search for Another Location

Airport or City:

Trip Planner

Search our weather history database for the weather conditions in past years. The results will help you decide how hot, cold, wet, or windy it might be!

Date:

Astronomy

Jan. 07, 2013 Rise Set
Actual Time 7:55 AM CST 5:48 PM CST
Civil Twilight 7:27 AM CST 6:16 PM CST
Nautical Twilight 6:56 AM CST 6:48 PM CST
Astronomical Twilight 6:25 AM CST 7:19 PM CST
Moon 3:24 AM CST (1/7) 1:59 PM CST (1/7)
Length of Visible Light 10h 48m
Length of Day
9h 52m
Waning Crescent, 22% of the Moon is Illuminated
Jan 7
Waning Crescent
Jan 11
New
Jan 18
First Quarter
Jan 26
Full
Feb 3
Last Quarter

Hourly Weather History & Observations

Time (CST) Temp. Windchill Dew Point Humidity Pressure Visibility Wind Dir Wind Speed Gust Speed Precip Events Conditions
12:51 AM 35.1 °F 26.9 °F 19.9 °F 54% 30.22 in 10.0 mi South 11.5 mph - N/A   Clear
1:51 AM 35.1 °F 26.9 °F 19.9 °F 54% 30.19 in 10.0 mi SSW 11.5 mph - N/A   Clear
2:51 AM 36.0 °F 27.1 °F 19.9 °F 52% 30.19 in 10.0 mi SSW 13.8 mph 19.6 mph N/A   Clear
3:51 AM 36.0 °F 28.0 °F 19.9 °F 52% 30.17 in 10.0 mi SSW 11.5 mph - N/A   Clear
4:51 AM 33.1 °F 26.9 °F 19.9 °F 59% 30.17 in 10.0 mi SW 6.9 mph - N/A   Clear
5:51 AM 35.1 °F 27.4 °F 19.9 °F 54% 30.15 in 10.0 mi SSW 10.4 mph - N/A   Clear
6:51 AM 34.0 °F 25.0 °F 21.0 °F 59% 30.15 in 10.0 mi SSW 12.7 mph - N/A   Clear
7:51 AM 33.1 °F 27.7 °F 21.9 °F 64% 30.16 in 10.0 mi SSW 5.8 mph - N/A   Clear
8:51 AM 37.0 °F 32.4 °F 23.0 °F 57% 30.16 in 10.0 mi WSW 5.8 mph - N/A   Clear
10:51 AM 46.0 °F 39.0 °F 21.9 °F 39% 30.15 in 10.0 mi WSW 17.3 mph 23.0 mph N/A   Clear
11:51 AM 46.9 °F - 21.0 °F 36% 30.12 in 10.0 mi SW 13.8 mph 20.7 mph N/A   Clear
12:51 PM 48.9 °F - 21.0 °F 33% 30.07 in 10.0 mi SW 16.1 mph 23.0 mph N/A   Clear
1:51 PM 51.1 °F - 21.0 °F 31% 30.03 in 10.0 mi SSW 12.7 mph 23.0 mph N/A   Clear
2:51 PM 48.9 °F - 21.9 °F 35% 30.01 in 10.0 mi SSW 15.0 mph 24.2 mph N/A   Clear
3:51 PM 50.0 °F - 24.1 °F 36% 30.01 in 10.0 mi SSW 11.5 mph 24.2 mph N/A   Clear
4:51 PM 48.9 °F - 25.0 °F 39% 30.01 in 10.0 mi SW 8.1 mph - N/A   Clear
5:51 PM 46.9 °F - 24.1 °F 41% 29.99 in 10.0 mi SSW 4.6 mph - N/A   Clear
6:51 PM 46.0 °F 41.9 °F 24.1 °F 42% 30.01 in 10.0 mi SSW 8.1 mph - N/A   Clear
7:51 PM 43.0 °F 37.7 °F 21.9 °F 43% 30.01 in 10.0 mi SSW 9.2 mph - N/A   Clear
8:51 PM 42.1 °F 34.9 °F 21.0 °F 43% 29.99 in 10.0 mi South 13.8 mph 21.9 mph N/A   Clear
9:51 PM 39.9 °F 32.1 °F 21.0 °F 47% 29.98 in 10.0 mi South 13.8 mph - N/A   Clear
10:51 PM 37.9 °F 29.2 °F 21.9 °F 53% 29.96 in 10.0 mi South 15.0 mph 21.9 mph N/A   Clear
11:51 PM 36.0 °F 28.5 °F 21.9 °F 57% 29.97 in 10.0 mi SSW 10.4 mph - N/A   Clear